Location: Unspecified
(0.0000°N, 0.0000°E)
Time: 00:33:42
(UTC+00:00)

RS-15 - Pass Details

Date: 21 February 2026
Orbit: 1894 x 2150 km, 64.8° (Epoch: 7 March)

Event Time Altitude Azimuth Distance (km) Brightness Sun altitude
Rises 21:33:13 0° 190° (S) 5,404 10.6 -48.8°
Reaches altitude 10° 21:36:45 10° 185° (S) 4,373 10.0 -49.7°
Enters shadow 21:39:37 20° 178° (S) 3,576 9.4 -50.4°
